Find Starlink 36164

NORAD ID: 67127 Int'l Des: 2025-299 Owner: SPXS Country: US Constellation: starlink operational
LEOCIRCULAR

实时位置

正在加载3D地球...

关于 Starlink 36164

正在加载描述...

即将过境

Passes for default location (London). Set your location on the main map for personalized predictions.

高度历史

Loading altitude history...

两行轨道根数

1 67127U 25299AB 26105.00491036 .00007781 00000-0 29198-3 0 9992
2 67127 43.0025 323.6005 0002181 262.7369 97.3235 15.27581514 18675
Epoch: Apr 15, 2026 • Age: 10 hours

当前状态

高度 483.1 km
速度 7.63 km/s
星下点 -3.46°S, 146.21°E
发射日期 Dec 15, 2025
运行时间 0.3 years
类型 internet

技术详情

分类 Payload
质量 575.00 kg
干质量 530.00 kg
总质量 575.00 kg
长度 0.30 m
直径 4.10 m
跨度 29.00 m
形状 Box + pan
制造商 SPXS
平台类型 Starlink V2MO
阶段状态 In Orbit
所有者/国家 SPXS/US

Most Searched